Regional Weather Roundup
Issued by NWS

Home | Current Version | Previous Version | Text Only | Print | Product List | Glossary On
Versions: 1 2 3 4 5 6 7 8 9 10 11 12 13 14 15 16 17 18 19 20 21 22 23 24 25 26 27 28 29 30 31 32 33 34 35 36 37 38 39 40 41 42 43 44 45 46 47 48 49 50
000
ASUS43 KDTX 260301
RWRMI
MICHIGAN HOURLY REGIONAL WEATHER ROUNDUP
NATIONAL WEATHER SERVICE DETROIT/PONTIAC MI
1100 PM EDT SAT MAR 25 2017

NOTE: "FAIR" INDICATES FEW OR NO CLOUDS BELOW 12,000 FEET WITH NO
SIGNIFICANT WEATHER AND/OR OBSTRUCTION TO VISIBILITY.

MIZ047>049-052>055-059>063-066>070-074>076-081>083-260400-
SOUTHEAST LOWER MICHIGAN

CITY           SKY/WX    TMP DP  RH WIND       PRES   REMARKS
ADRIAN         CLOUDY    40  36  86 E15       30.13F WCI  32
ALMA           LGT RAIN  38  38  99 NE9       30.18F WCI  32
ANN ARBOR      CLOUDY    40  37  89 E14       30.14F WCI  32
BAD AXE        CLOUDY    37  34  90 E9G17     30.23F WCI  30
CARO           CLOUDY    37  35  92 E8        30.20F WCI  31
DETROIT CITY   CLOUDY    40  36  86 E12G21    30.18F WCI  33
DETROIT        CLOUDY    41  36  82 E10       30.17F
FLINT          CLOUDY    40  37  89 E10       30.17F WCI  33
GROSSE ILE     MOCLDY    39  35  84 E9        30.15F WCI  33
HILLSDALE      CLOUDY    39  37  93 E13       30.08F WCI  32
HOWELL         CLOUDY    40  37  89 E10       30.13F WCI  34

CITY           SKY/WX    TMP DP  RH WIND       PRES   REMARKS
JACKSON        CLOUDY    43  39  86 E12G23    30.11S
LAMBERTVILLE   CLOUDY    39  35  87 E12G22    30.14F WCI  31
LANSING        CLOUDY    42  40  92 E9        30.14S FOG
LAPEER         CLOUDY    38  37  94 E7        30.18F WCI  33
MASON          CLOUDY    42  41  96 E9        30.13R
MONROE         MOCLDY    39  37  90 E8G18     30.15S WCI  34
MT. CLEMENS    CLOUDY    39  39  99 E10       30.16F WCI  32
PONTIAC        CLOUDY    39  35  86 E12       30.16F WCI  32
PORT HOPE        N/A     35  33  92 E12       30.23F WCI  27
PORT HURON     CLOUDY    37  34  87 NE8       30.21F WCI  31
TRI CITIES     CLOUDY    38  37  97 E12       30.21S WCI  30
MIDLAND        CLOUDY    37  35  94 NE13      30.20F WCI  28
TROY           CLOUDY    40  36  84 E10       30.19F WCI  34
SAGINAW HB     CLOUDY    37  34  87 E9G16     30.19S WCI  31
$$
MIZ043>046-050>051-056>058-064>065-071>073-077>080-260400-
SOUTHWEST LOWER MICHIGAN

CITY           SKY/WX    TMP DP  RH WIND       PRES   REMARKS
BATTLE CREEK   CLOUDY    44  42  93 E12       30.08F
BENTON HARBOR  CLOUDY    49  45  86 E14G23    30.02S
BIG RAPIDS     CLOUDY    36  33  92 E10G17    30.15S WCI  28
COLDWATER      CLOUDY    44  41  88 E7        30.08S
FREMONT        CLOUDY    38  37  94 E14G20    30.09F WCI  30
HOLLAND        LGT RAIN  44  41  89 E13       30.06S
GRAND RAPIDS   LGT RAIN  41  38  89 E16       30.10F
IONIA          LGT RAIN  39  38  97 NE12      30.13R WCI  32
KALAMAZOO      LGT RAIN  46  42  86 E9        30.07S FOG
LUDINGTON      MIX PCPN  38  37  99 E16       30.09F WCI  29
MARSHALL       CLOUDY    43  41  93 E7        30.09F
MOUNT PLEASANT LGT RAIN  36  35  96 E8        30.19S WCI  29
MUSKEGON       LGT RAIN  42  39  89 E16       30.07F
SOUTH HAVEN    CLOUDY    46  45  95 SE14G21   30.04S FOG
$$
MIZ016>042-260400-
NORTHERN LOWER MICHIGAN

CITY           SKY/WX    TMP DP  RH WIND       PRES   REMARKS
ALPENA         CLOUDY    34  29  82 E12       30.29F WCI  25
BEAVER ISLAND  MIX PCPN  32  27  81 E20G26    30.23F WCI  20
BELLAIRE       MIX PCPN  35  30  83 E7        30.21F WCI  29
CADILLAC       LGT SNOW  34  33  95 E13G23    30.16S WCI  25
CHARLEVOIX     CLOUDY    33  30  90 E18G25    30.24F WCI  22
FRANKFORT      DRIZZLE   37  33  87 E8G16     30.14S WCI  30
GAYLORD        CLOUDY    32  27  81 E8G18     30.21F WCI  25
GRAYLING       LGT SNOW  32  30  93 E20       30.21F WCI  20
HARBOR SPRINGS LGT SNOW  32  30  94 E16G22    30.23F WCI  21
HOUGHTON LAKE  LGT RAIN  33  32  96 E13       30.21F WCI  24
MANISTEE       LGT RAIN  38  36  92 E13G20    30.11F WCI  30
OSCODA         CLOUDY    35  33  92 NE12      30.28R WCI  27
PELLSTON       MIX PCPN  32  26  78 E13G23    30.26F WCI  22
ROGERS CITY    MIX PCPN  33  28  80 E17G23      N/A  WCI  22
TRAVERSE CITY  LGT RAIN  36  32  85 E7        30.18F WCI  30
$$
MIZ007>008-015-260400-
EASTERN UPPER MICHIGAN

CITY           SKY/WX    TMP DP  RH WIND       PRES   REMARKS
KINROSS        CLOUDY    33  11  39 E18G26    30.30F WCI  22
MACKINAC ISLAN CLOUDY    33  24  69 E15G26    30.28F WCI  23
NEWBERRY       CLOUDY    32  22  67 E10       30.26F WCI  24
S. S. MARIE    CLOUDY    34  15  46 SE9       30.32F WCI  27
MUNISING         N/A     36  24  62 VRB5      30.24F WCI  32
$$
MIZ004>006-011>014-085-260400-
CENTRAL UPPER MICHIGAN

CITY           SKY/WX    TMP DP  RH WIND       PRES   REMARKS
MANISTIQUE     CLOUDY    32  21  64 E15G22    30.24F WCI  22
ESCANABA       MIX PCPN  33  31  92 E9        30.23F WCI  25
MENOMINEE        N/A    N/A N/A N/A MISG        N/A
SAWYER-GWINN   CLOUDY    34  26  71 E12G17    30.21F WCI  25
$$
MIZ001>003-009>011-084-260400-
WESTERN UPPER MICHIGAN

CITY           SKY/WX    TMP DP  RH WIND       PRES   REMARKS
IRON MOUNTAIN  CLOUDY    33  28  81 E6        30.17F WCI  28
HOUGHTON       CLOUDY    30  27  88 E13       30.19F WCI  20
COPPER HARBOR    N/A     32  27  81 SE5       30.24F WCI  27
IRONWOOD       CLOUDY    35  29  78 NE6       30.13F WCI  30
$$

ABBREVIATIONS USED IN REMARKS
   TC - TEMPERATURE IN CELSIUS
  WCI - WIND CHILL INDEX
   HX - HEAT INDEX
  VSB - VISIBILITY




USA.gov is the U.S. government's official web portal to all federal, state and local government web resources and services.